QPF
0.02 0.02 0.02 0.02 0.02 0.03 0.02 0.02 0.02 0.01 0.01 0.01 0.01 0.01 0.01 0.02 0.02 0.02 0.02 0.01 0.01 0.01 0.02 0.02 0.02 0.02 0.02 0.02 0.02 0.02 0.03 0.03 0.03 0.03 0.02 0.03 0.03 0.04 0.04 0.04 0.04 0.05 0.05
0.02 0.01 0.01 0.01 0.02 0.03 0.03 0.02 0.01 0.01 0.01 0.01 0.01 0.01 0.01 0.01 0.02 0.02 0.02 0.01 0.01 0.01 0.01 0.02 0.02 0.02 0.02 0.03 0.03 0.03 0.03 0.04 0.05 0.04 0.03 0.02 0.03 0.03 0.04 0.03 0.03 0.04 0.03
0.02 0.02 0.01 0.01 0.01 0.02 0.03 0.02 0.01 0.01 0.01 0.01 0.01 0.01 0.01 0.01 0.01 0.01 0.01 0.01 0.01 0.01 0.01 0.01 0.02 0.03 0.03 0.03 0.03 0.04 0.04 0.04 0.04 0.04 0.03 0.02 0.02 0.03 0.03 0.03 0.02 0.03 0.03
0.03 0.02 0.02 0.01 0.01 0.02 0.02 0.02 0.01 0.01 0.01 0.01 0.01 0.01 0.01 0.01 0.01 0.01 0.01 0.01 0.01 0.01 0.01 0.01 0.02 0.02 0.02 0.02 0.03 0.03 0.03 0.04 0.04 0.04 0.03 0.03 0.02 0.02 0.02 0.02 0.01 0.02 0.02
0.02 0.02 0.02 0.02 0.02 0.02 0.02 0.02 0.02 0.01 0.01 0.01 0.01 0.01 0.01 0.01 0.01 0.01 0.01 0.01 0.01 0.01 0.01 0.01 0.01 0.02 0.02 0.02 0.02 0.03 0.03 0.03 0.04 0.04 0.04 0.03 0.03 0.02 0.02 0.01 0.01 0.01 0.01
0.01 0.02 0.02 0.02 0.02 0.02 0.02 0.02 0.02 0.02 0.02 0.01 0.01 0.01 0.01 0.01 0.02 0.02 0.01 0.01 0.01 0.01 0.01 0.01 0.01 0.01 0.01 0.02 0.02 0.02 0.03 0.03 0.03 0.03 0.03 0.03 0.03 0.03 0.03 0.02 0.02 0.02 0.02
0.01 0.02 0.02 0.02 0.02 0.02 0.03 0.03 0.03 0.02 0.02 0.02 0.02 0.02 0.02 0.02 0.02 0.02 0.02 0.02 0.02 0.01 0.01 0.01 0.01 0.01 0.02 0.01 0.02 0.02 0.02 0.03 0.03 0.02 0.03 0.03 0.03 0.03 0.03 0.03 0.03 0.02 0.02
0.01 0.02 0.02 0.02 0.02 0.02 0.03 0.03 0.03 0.02 0.02 0.02 0.02 0.02 0.02 0.02 0.03 0.03 0.03 0.02 0.02 0.02 0.02 0.02 0.01 0.01 0.02 0.02 0.02 0.02 0.02 0.02 0.02 0.02 0.02 0.02 0.02 0.02 0.04 0.04 0.03 0.03 0.03
0.01 0.01 0.02 0.03 0.03 0.02 0.03 0.03 0.03 0.03 0.03 0.02 0.02 0.01 0.01 0.01 0.01 0.02 0.02 0.02 0.02 0.02 0.02 0.01 0.01 0.01 0.02 0.02 0.01 0.01 0.01 0.01 0.02 0.02 0.02 0.02 0.02 0.02 0.03 0.05 0.04 0.04 0.04
0.01 0.02 0.02 0.02 0.02 0.02 0.02 0.03 0.03 0.04 0.03 0.03 0.02 0.01 0.01 0.01 0.01 0.01 0.01 0.01 0.01 0.01 0.01 0.01 0.01 0.01 0.01 0.01 0.01 0.01 0.01 0.01 0.01 0.01 0.01 0.01 0.01 0.01 0.02 0.04 0.05 0.04 0.04
0.01 0.01 0.02 0.02 0.02 0.02 0.02 0.02 0.02 0.03 0.03 0.03 0.03 0.02 0.01 0.01 0.01 0.01 0.01 0.01 0.01 0.01 0.01 0.01 0.01 0.01 0.01 0.02 0.02 0.02 0.02 0.01 0.01 0.01 0.01 0.01 0.01 0.01 0.02 0.03 0.04 0.04 0.04
0.01 0.01 0.02 0.02 0.02 0.03 0.02 0.02 0.03 0.03 0.03 0.03 0.02 0.02 0.02 0.02 0.02 0.01 0.02 0.02 0.01 0.01 0.01 0.01 0.01 0.02 0.02 0.02 0.02 0.02 0.02 0.02 0.02 0.02 0.02 0.01 0.01 0.01 0.01 0.02 0.03 0.03 0.03
0.01 0.01 0.02 0.02 0.02 0.03 0.03 0.03 0.03 0.03 0.03 0.03 0.03 0.02 0.02 0.02 0.02 0.02 0.02 0.02 0.02 0.02 0.02 0.02 0.02 0.03 0.03 0.03 0.03 0.03 0.03 0.03 0.02 0.02 0.02 0.02 0.01 0.01 0.02 0.03 0.03 0.04 0.03
0.02 0.01 0.01 0.02 0.02 0.03 0.04 0.04 0.04 0.04 0.04 0.03 0.03 0.02 0.02 0.02 0.02 0.02 0.02 0.02 0.02 0.02 0.02 0.02 0.03 0.03 0.03 0.03 0.03 0.03 0.03 0.03 0.03 0.02 0.02 0.02 0.02 0.02 0.03 0.03 0.04 0.05 0.04
0.01 0.01 0.02 0.02 0.02 0.03 0.03 0.04 0.05 0.05 0.04 0.03 0.02 0.02 0.02 0.02 0.02 0.02 0.02 0.02 0.02 0.02 0.03 0.03 0.03 0.03 0.03 0.04 0.04 0.03 0.04 0.03 0.03 0.03 0.03 0.03 0.03 0.03 0.03 0.03 0.04 0.04 0.04
0.01 0.01 0.02 0.02 0.03 0.03 0.03 0.03 0.04 0.05 0.05 0.04 0.03 0.03 0.02 0.02 0.02 0.02 0.02 0.02 0.02 0.02 0.03 0.03 0.02 0.02 0.02 0.03 0.03 0.04 0.04 0.04 0.04 0.04 0.04 0.04 0.04 0.04 0.03 0.03 0.03 0.03 0.03
0.01 0.01 0.02 0.02 0.03 0.03 0.03 0.03 0.03 0.03 0.04 0.04 0.04 0.03 0.03 0.03 0.02 0.02 0.02 0.01 0.02 0.02 0.02 0.02 0.02 0.02 0.02 0.02 0.03 0.03 0.03 0.04 0.05 0.04 0.04 0.04 0.04 0.04 0.03 0.03 0.03 0.03 0.03
0.02 0.02 0.02 0.02 0.02 0.03 0.03 0.03 0.03 0.03 0.03 0.03 0.04 0.04 0.04 0.04 0.03 0.03 0.03 0.02 0.02 0.02 0.03 0.03 0.03 0.03 0.03 0.03 0.03 0.03 0.03 0.04 0.04 0.04 0.04 0.03 0.03 0.03 0.03 0.03 0.03 0.03 0.03
0.02 0.02 0.02 0.02 0.02 0.02 0.02 0.03 0.03 0.03 0.03 0.03 0.03 0.03 0.04 0.05 0.05 0.05 0.05 0.04 0.04 0.04 0.03 0.03 0.03 0.04 0.03 0.03 0.03 0.03 0.04 0.04 0.03 0.03 0.03 0.03 0.03 0.03 0.03 0.03 0.03 0.03 0.03
0.02 0.03 0.03 0.02 0.02 0.02 0.02 0.02 0.03 0.03 0.04 0.04 0.03 0.03 0.03 0.04 0.04 0.04 0.04 0.04 0.04 0.04 0.04 0.04 0.04 0.04 0.03 0.03 0.03 0.03 0.03 0.03 0.03 0.03 0.03 0.03 0.03 0.03 0.03 0.03 0.03 0.04 0.04
0.02 0.02 0.02 0.02 0.02 0.02 0.03 0.03 0.03 0.03 0.03 0.03 0.03 0.03 0.03 0.03 0.03 0.03 0.03 0.03 0.03 0.03 0.03 0.03 0.03 0.03 0.02 0.02 0.03 0.03 0.03 0.03 0.03 0.03 0.03 0.03 0.03 0.03 0.03 0.04 0.04 0.04 0.04
0.02 0.02 0.02 0.02 0.02 0.03 0.03 0.03 0.03 0.03 0.03 0.02 0.02 0.02 0.02 0.02 0.02 0.02 0.02 0.02 0.02 0.02 0.02 0.03 0.03 0.03 0.02 0.02 0.02 0.03 0.03 0.03 0.03 0.03 0.03 0.03 0.03 0.03 0.04 0.04 0.04 0.04 0.04
0.02 0.03 0.03 0.03 0.03 0.03 0.03 0.03 0.03 0.03 0.03 0.02 0.02 0.02 0.02 0.01 0.01 0.01 0.02 0.02 0.02 0.02 0.02 0.02 0.02 0.02 0.02 0.02 0.02 0.02 0.02 0.02 0.02 0.03 0.03 0.03 0.03 0.03 0.03 0.04 0.04 0.04 0.04
0.03 0.03 0.03 0.03 0.03 0.03 0.03 0.03 0.03 0.03 0.02 0.02 0.02 0.02 0.02 0.01 0.01 0.01 0.01 0.01 0.01 0.02 0.02 0.02 0.02 0.02 0.02 0.02 0.02 0.02 0.02 0.02 0.02 0.02 0.03 0.03 0.03 0.03 0.03 0.03 0.03 0.04 0.04
0.02 0.03 0.03 0.03 0.03 0.03 0.03 0.03 0.03 0.03 0.03 0.02 0.02 0.02 0.02 0.01 0.01 0.01 0.01 0.01 0.01 0.02 0.02 0.02 0.02 0.02 0.02 0.02 0.02 0.02 0.02 0.02 0.02 0.03 0.03 0.03 0.03 0.02 0.03 0.03 0.03 0.03 0.03
0.01 0.01 0.02 0.03 0.03 0.03 0.03 0.03 0.02 0.02 0.02 0.02 0.01 0.01 0.01 0.01 0.01 0.01 0.01 0.01 0.01 0.01 0.01 0.02 0.02 0.02 0.02 0.02 0.01 0.01 0.02 0.02 0.02 0.02 0.03 0.03 0.03 0.02 0.03 0.03 0.03 0.03 0.03
MSLP
1019.99 1019.75 1019.49 1019.19 1018.87 1018.52 1018.15 1017.78 1017.42 1017.08 1016.78 1016.53 1016.34 1016.21 1016.14 1016.12 1016.15 1016.21 1016.30 1016.41 1016.53 1016.67 1016.82 1016.98 1017.16 1017.35 1017.56 1017.79 1018.05 1018.33 1018.65 1019.00 1019.38 1019.79 1020.21 1020.63 1021.04 1021.42 1021.76 1022.07 1022.34 1022.59 1022.84
1020.15 1019.94 1019.68 1019.38 1019.04 1018.67 1018.28 1017.87 1017.47 1017.08 1016.72 1016.40 1016.13 1015.92 1015.76 1015.67 1015.62 1015.63 1015.68 1015.76 1015.88 1016.02 1016.18 1016.35 1016.54 1016.75 1016.96 1017.20 1017.46 1017.76 1018.10 1018.47 1018.90 1019.36 1019.84 1020.34 1020.83 1021.29 1021.72 1022.11 1022.45 1022.76 1023.03
1020.27 1020.08 1019.83 1019.53 1019.19 1018.80 1018.39 1017.96 1017.53 1017.10 1016.68 1016.30 1015.96 1015.67 1015.43 1015.25 1015.12 1015.06 1015.05 1015.09 1015.17 1015.30 1015.45 1015.63 1015.83 1016.05 1016.28 1016.53 1016.81 1017.13 1017.49 1017.90 1018.36 1018.86 1019.39 1019.95 1020.50 1021.04 1021.54 1022.00 1022.41 1022.79 1023.12
1020.38 1020.20 1019.96 1019.66 1019.32 1018.93 1018.51 1018.06 1017.60 1017.14 1016.69 1016.26 1015.85 1015.49 1015.16 1014.89 1014.68 1014.53 1014.45 1014.42 1014.46 1014.54 1014.68 1014.85 1015.05 1015.27 1015.52 1015.80 1016.10 1016.44 1016.83 1017.26 1017.74 1018.27 1018.83 1019.42 1020.01 1020.60 1021.16 1021.68 1022.17 1022.61 1023.02
1020.50 1020.32 1020.09 1019.79 1019.45 1019.05 1018.63 1018.17 1017.70 1017.22 1016.74 1016.26 1015.81 1015.38 1014.98 1014.62 1014.32 1014.08 1013.91 1013.81 1013.77 1013.81 1013.90 1014.04 1014.22 1014.45 1014.71 1015.00 1015.33 1015.69 1016.10 1016.55 1017.04 1017.57 1018.14 1018.74 1019.34 1019.95 1020.55 1021.13 1021.68 1022.20 1022.68
1020.65 1020.47 1020.23 1019.93 1019.58 1019.19 1018.76 1018.30 1017.82 1017.33 1016.82 1016.32 1015.82 1015.33 1014.87 1014.44 1014.06 1013.73 1013.46 1013.27 1013.16 1013.12 1013.15 1013.25 1013.41 1013.61 1013.87 1014.17 1014.51 1014.88 1015.29 1015.74 1016.23 1016.75 1017.31 1017.89 1018.49 1019.11 1019.73 1020.34 1020.96 1021.55 1022.11
1020.84 1020.64 1020.38 1020.07 1019.72 1019.32 1018.89 1018.43 1017.94 1017.44 1016.93 1016.40 1015.87 1015.34 1014.82 1014.33 1013.87 1013.46 1013.12 1012.84 1012.64 1012.52 1012.48 1012.52 1012.63 1012.80 1013.03 1013.31 1013.64 1014.01 1014.41 1014.85 1015.32 1015.82 1016.34 1016.90 1017.49 1018.10 1018.73 1019.38 1020.03 1020.70 1021.35
1021.04 1020.81 1020.54 1020.21 1019.85 1019.44 1019.01 1018.54 1018.05 1017.55 1017.02 1016.48 1015.93 1015.37 1014.82 1014.28 1013.77 1013.30 1012.88 1012.52 1012.24 1012.04 1011.92 1011.88 1011.92 1012.04 1012.22 1012.46 1012.76 1013.09 1013.47 1013.88 1014.32 1014.78 1015.28 1015.81 1016.38 1016.98 1017.62 1018.30 1019.00 1019.73 1020.45
1021.24 1020.97 1020.67 1020.33 1019.95 1019.53 1019.09 1018.62 1018.13 1017.62 1017.09 1016.54 1015.98 1015.41 1014.84 1014.28 1013.73 1013.21 1012.74 1012.32 1011.96 1011.68 1011.48 1011.36 1011.32 1011.36 1011.47 1011.64 1011.88 1012.16 1012.49 1012.86 1013.26 1013.70 1014.17 1014.69 1015.25 1015.85 1016.51 1017.21 1017.96 1018.74 1019.53
1021.39 1021.10 1020.77 1020.40 1020.00 1019.58 1019.13 1018.65 1018.16 1017.65 1017.12 1016.57 1016.01 1015.44 1014.86 1014.29 1013.73 1013.18 1012.68 1012.21 1011.80 1011.45 1011.17 1010.96 1010.83 1010.77 1010.79 1010.88 1011.03 1011.25 1011.52 1011.84 1012.20 1012.61 1013.07 1013.59 1014.15 1014.78 1015.46 1016.20 1016.99 1017.81 1018.66
1021.49 1021.16 1020.81 1020.42 1020.01 1019.57 1019.11 1018.63 1018.14 1017.62 1017.09 1016.55 1015.99 1015.43 1014.86 1014.30 1013.74 1013.20 1012.68 1012.19 1011.73 1011.33 1010.97 1010.67 1010.44 1010.28 1010.19 1010.17 1010.23 1010.36 1010.57 1010.83 1011.17 1011.56 1012.03 1012.55 1013.15 1013.81 1014.53 1015.32 1016.15 1017.02 1017.90
1021.51 1021.16 1020.79 1020.39 1019.96 1019.52 1019.05 1018.56 1018.06 1017.54 1017.01 1016.47 1015.92 1015.37 1014.82 1014.28 1013.74 1013.21 1012.69 1012.19 1011.71 1011.26 1010.84 1010.46 1010.13 1009.85 1009.65 1009.52 1009.48 1009.52 1009.66 1009.88 1010.18 1010.58 1011.05 1011.61 1012.25 1012.96 1013.74 1014.58 1015.46 1016.36 1017.27
1021.47 1021.11 1020.72 1020.31 1019.87 1019.42 1018.94 1018.45 1017.94 1017.41 1016.87 1016.33 1015.79 1015.25 1014.72 1014.20 1013.68 1013.17 1012.67 1012.17 1011.67 1011.18 1010.71 1010.25 1009.83 1009.45 1009.14 1008.91 1008.76 1008.72 1008.79 1008.96 1009.25 1009.65 1010.16 1010.76 1011.46 1012.23 1013.07 1013.96 1014.88 1015.82 1016.75
1021.39 1021.02 1020.62 1020.20 1019.76 1019.29 1018.81 1018.30 1017.77 1017.23 1016.68 1016.13 1015.59 1015.05 1014.54 1014.03 1013.53 1013.04 1012.55 1012.06 1011.55 1011.04 1010.52 1010.00 1009.50 1009.03 1008.62 1008.29 1008.06 1007.94 1007.95 1008.09 1008.37 1008.79 1009.33 1009.99 1010.74 1011.57 1012.47 1013.41 1014.38 1015.35 1016.30
1021.29 1020.91 1020.51 1020.08 1019.63 1019.15 1018.65 1018.12 1017.57 1017.00 1016.43 1015.86 1015.30 1014.76 1014.24 1013.74 1013.25 1012.77 1012.29 1011.80 1011.29 1010.75 1010.20 1009.63 1009.06 1008.53 1008.04 1007.63 1007.33 1007.15 1007.12 1007.24 1007.53 1007.96 1008.54 1009.24 1010.06 1010.95 1011.90 1012.89 1013.89 1014.89 1015.85
1021.17 1020.79 1020.39 1019.96 1019.50 1019.00 1018.48 1017.92 1017.33 1016.73 1016.12 1015.51 1014.92 1014.36 1013.82 1013.30 1012.81 1012.33 1011.85 1011.36 1010.84 1010.28 1009.70 1009.10 1008.49 1007.90 1007.36 1006.90 1006.55 1006.34 1006.28 1006.40 1006.69 1007.15 1007.76 1008.51 1009.37 1010.31 1011.31 1012.34 1013.37 1014.39 1015.37
1021.06 1020.68 1020.27 1019.84 1019.36 1018.85 1018.29 1017.69 1017.07 1016.42 1015.76 1015.10 1014.47 1013.86 1013.29 1012.75 1012.24 1011.74 1011.24 1010.73 1010.20 1009.62 1009.02 1008.39 1007.75 1007.14 1006.57 1006.08 1005.71 1005.49 1005.43 1005.55 1005.86 1006.34 1006.98 1007.77 1008.67 1009.65 1010.68 1011.74 1012.80 1013.84 1014.83
1020.93 1020.55 1020.15 1019.70 1019.21 1018.67 1018.08 1017.45 1016.77 1016.07 1015.36 1014.65 1013.96 1013.30 1012.68 1012.10 1011.55 1011.02 1010.50 1009.96 1009.40 1008.81 1008.19 1007.54 1006.89 1006.26 1005.68 1005.19 1004.82 1004.61 1004.56 1004.70 1005.03 1005.54 1006.21 1007.02 1007.95 1008.95 1010.01 1011.09 1012.17 1013.23 1014.25
1020.76 1020.39 1019.99 1019.54 1019.04 1018.48 1017.86 1017.18 1016.46 1015.71 1014.94 1014.17 1013.43 1012.72 1012.05 1011.42 1010.82 1010.25 1009.69 1009.12 1008.52 1007.91 1007.26 1006.60 1005.94 1005.31 1004.74 1004.27 1003.92 1003.72 1003.71 1003.87 1004.23 1004.76 1005.46 1006.29 1007.24 1008.26 1009.33 1010.42 1011.52 1012.60 1013.65
1020.55 1020.19 1019.80 1019.35 1018.84 1018.26 1017.61 1016.90 1016.14 1015.34 1014.52 1013.71 1012.92 1012.16 1011.44 1010.76 1010.12 1009.50 1008.89 1008.28 1007.65 1007.00 1006.34 1005.66 1005.00 1004.37 1003.82 1003.37 1003.05 1002.89 1002.90 1003.10 1003.49 1004.05 1004.76 1005.61 1006.57 1007.60 1008.68 1009.79 1010.90 1012.00 1013.08
1020.28 1019.94 1019.55 1019.11 1018.59 1018.00 1017.33 1016.60 1015.81 1014.98 1014.14 1013.29 1012.46 1011.67 1010.91 1010.19 1009.50 1008.84 1008.19 1007.53 1006.86 1006.18 1005.49 1004.80 1004.14 1003.52 1002.98 1002.56 1002.28 1002.15 1002.21 1002.44 1002.85 1003.44 1004.17 1005.03 1006.00 1007.03 1008.12 1009.23 1010.36 1011.48 1012.59
1019.95 1019.62 1019.25 1018.81 1018.29 1017.70 1017.02 1016.28 1015.48 1014.64 1013.78 1012.93 1012.08 1011.27 1010.49 1009.75 1009.03 1008.33 1007.64 1006.94 1006.24 1005.52 1004.81 1004.11 1003.44 1002.84 1002.32 1001.92 1001.67 1001.59 1001.68 1001.94 1002.39 1002.99 1003.74 1004.61 1005.57 1006.61 1007.69 1008.81 1009.94 1011.08 1012.21
1019.56 1019.25 1018.88 1018.45 1017.94 1017.35 1016.68 1015.94 1015.15 1014.32 1013.47 1012.62 1011.79 1010.98 1010.20 1009.45 1008.72 1008.00 1007.28 1006.56 1005.83 1005.09 1004.36 1003.64 1002.98 1002.38 1001.89 1001.52 1001.31 1001.26 1001.38 1001.68 1002.15 1002.76 1003.52 1004.39 1005.35 1006.38 1007.46 1008.57 1009.70 1010.84 1011.98
1019.13 1018.83 1018.47 1018.04 1017.54 1016.96 1016.30 1015.57 1014.80 1013.99 1013.18 1012.36 1011.56 1010.78 1010.02 1009.28 1008.56 1007.84 1007.11 1006.38 1005.63 1004.89 1004.15 1003.44 1002.79 1002.21 1001.75 1001.41 1001.23 1001.22 1001.37 1001.70 1002.18 1002.81 1003.57 1004.43 1005.38 1006.39 1007.45 1008.54 1009.65 1010.78 1011.90
1018.67 1018.37 1018.01 1017.58 1017.09 1016.51 1015.87 1015.17 1014.43 1013.66 1012.88 1012.11 1011.36 1010.63 1009.91 1009.21 1008.51 1007.81 1007.10 1006.38 1005.65 1004.92 1004.20 1003.51 1002.89 1002.34 1001.91 1001.62 1001.48 1001.50 1001.68 1002.03 1002.52 1003.15 1003.90 1004.75 1005.67 1006.65 1007.67 1008.73 1009.80 1010.89 1011.98
1018.19 1017.88 1017.51 1017.09 1016.59 1016.02 1015.40 1014.73 1014.02 1013.30 1012.58 1011.87 1011.18 1010.50 1009.84 1009.19 1008.55 1007.89 1007.22 1006.54 1005.85 1005.15 1004.48 1003.84 1003.26 1002.77 1002.39 1002.14 1002.05 1002.10 1002.31 1002.68 1003.18 1003.80 1004.52 1005.34 1006.22 1007.15 1008.12 1009.12 1010.14 1011.17 1012.19
Thickness
5513 5514 5514 5513 5513 5513 5513 5514 5514 5514 5515 5515 5515 5515 5515 5515 5515 5515 5515 5514 5514 5514 5514 5513 5513 5513 5512 5512 5512 5513 5513 5513 5512 5511 5511 5511 5512 5512 5511 5511 5511 5512 5512
5504 5505 5505 5505 5505 5505 5505 5506 5506 5506 5506 5506 5506 5506 5506 5506 5506 5505 5505 5505 5505 5504 5504 5504 5503 5503 5502 5502 5502 5502 5502 5502 5501 5499 5498 5498 5499 5500 5500 5499 5500 5500 5500
5495 5495 5496 5495 5496 5496 5496 5497 5497 5497 5498 5498 5497 5497 5496 5496 5496 5496 5495 5495 5495 5495 5495 5495 5494 5494 5493 5492 5492 5491 5491 5491 5490 5489 5487 5486 5487 5487 5487 5487 5487 5488 5488
5485 5485 5485 5485 5486 5487 5487 5488 5488 5488 5488 5487 5487 5487 5486 5486 5485 5486 5485 5485 5485 5485 5486 5485 5485 5484 5484 5483 5482 5481 5480 5479 5478 5477 5476 5475 5475 5475 5474 5474 5474 5475 5476
5475 5475 5475 5476 5476 5476 5477 5478 5478 5477 5477 5477 5477 5476 5476 5476 5476 5475 5475 5475 5475 5475 5475 5475 5475 5475 5474 5473 5473 5471 5470 5468 5466 5465 5464 5463 5463 5462 5462 5462 5461 5462 5463
5464 5465 5465 5466 5466 5466 5466 5466 5467 5467 5466 5466 5466 5466 5466 5466 5466 5465 5465 5464 5465 5465 5465 5464 5464 5464 5464 5463 5462 5461 5460 5458 5456 5455 5454 5453 5453 5452 5451 5450 5448 5447 5449
5454 5455 5455 5455 5456 5455 5456 5456 5456 5456 5456 5455 5455 5455 5455 5455 5455 5455 5454 5454 5454 5454 5454 5453 5453 5454 5453 5452 5452 5451 5449 5449 5448 5447 5445 5444 5443 5442 5440 5438 5436 5435 5437
5443 5444 5444 5444 5445 5445 5445 5445 5445 5445 5445 5444 5444 5444 5444 5445 5445 5445 5444 5444 5443 5443 5443 5443 5442 5442 5442 5441 5440 5438 5437 5437 5437 5436 5435 5435 5433 5431 5429 5428 5425 5423 5424
5431 5432 5433 5433 5433 5434 5434 5434 5434 5435 5435 5434 5434 5434 5433 5434 5434 5434 5434 5432 5432 5432 5432 5432 5431 5431 5431 5430 5428 5426 5425 5425 5424 5424 5424 5423 5422 5420 5417 5414 5411 5409 5409
5420 5420 5421 5421 5422 5423 5423 5424 5424 5424 5424 5424 5424 5423 5423 5423 5423 5423 5423 5422 5421 5421 5421 5420 5420 5420 5419 5418 5417 5415 5414 5413 5412 5411 5411 5410 5409 5407 5405 5404 5401 5398 5397
5408 5408 5409 5410 5411 5412 5412 5413 5413 5413 5413 5413 5413 5413 5412 5412 5412 5412 5411 5411 5410 5409 5410 5409 5409 5409 5408 5407 5406 5404 5404 5403 5400 5399 5398 5397 5395 5394 5393 5392 5391 5389 5387
5396 5397 5397 5398 5399 5400 5401 5401 5402 5402 5402 5401 5401 5401 5401 5401 5401 5400 5400 5400 5399 5398 5398 5398 5398 5397 5396 5395 5394 5393 5392 5390 5388 5386 5384 5383 5382 5381 5381 5380 5379 5378 5378
5384 5384 5385 5386 5387 5388 5388 5389 5389 5390 5390 5390 5390 5389 5389 5390 5389 5389 5389 5388 5387 5386 5386 5386 5386 5386 5384 5383 5382 5381 5379 5377 5375 5373 5372 5371 5370 5369 5368 5367 5367 5366 5365
5371 5371 5372 5373 5374 5375 5376 5377 5377 5377 5378 5378 5378 5378 5378 5377 5377 5377 5376 5376 5376 5375 5374 5374 5374 5373 5372 5372 5371 5369 5368 5366 5364 5362 5360 5358 5356 5355 5355 5354 5354 5353 5351
5357 5358 5359 5360 5361 5362 5363 5363 5364 5365 5365 5366 5366 5367 5366 5366 5367 5367 5366 5366 5365 5364 5363 5361 5360 5360 5358 5358 5357 5356 5356 5354 5351 5349 5347 5345 5344 5343 5342 5342 5341 5340 5338
5344 5345 5346 5347 5348 5349 5349 5350 5351 5353 5355 5355 5355 5356 5356 5356 5356 5356 5356 5356 5355 5354 5352 5350 5349 5348 5347 5346 5345 5344 5342 5341 5339 5337 5335 5333 5332 5331 5330 5329 5328 5327 5325
5330 5331 5332 5334 5335 5336 5338 5339 5339 5341 5343 5344 5344 5345 5345 5345 5345 5345 5345 5344 5344 5343 5341 5339 5338 5337 5336 5334 5333 5332 5330 5329 5327 5326 5324 5323 5321 5320 5319 5318 5317 5315 5314
5318 5319 5321 5322 5323 5324 5325 5326 5328 5329 5330 5330 5332 5333 5334 5334 5334 5334 5333 5333 5331 5330 5329 5328 5327 5326 5324 5323 5321 5320 5318 5317 5316 5315 5313 5312 5310 5309 5308 5307 5306 5304 5303
5306 5308 5309 5311 5311 5313 5314 5315 5316 5317 5318 5318 5319 5320 5321 5321 5322 5321 5321 5320 5319 5318 5317 5316 5315 5314 5313 5311 5310 5308 5307 5306 5304 5303 5302 5301 5300 5299 5298 5297 5295 5295 5293
5295 5298 5299 5300 5301 5302 5303 5303 5304 5305 5306 5306 5306 5307 5308 5308 5309 5308 5308 5307 5307 5307 5306 5304 5304 5303 5302 5300 5299 5298 5296 5295 5294 5293 5292 5291 5290 5289 5287 5286 5285 5284 5283
5284 5286 5288 5289 5289 5290 5292 5293 5293 5294 5294 5294 5294 5295 5297 5296 5296 5296 5296 5296 5295 5295 5294 5293 5292 5291 5290 5289 5288 5287 5286 5285 5284 5283 5282 5281 5280 5279 5278 5277 5276 5275 5274
5273 5275 5276 5277 5278 5279 5281 5282 5282 5283 5283 5284 5283 5284 5285 5285 5284 5284 5284 5284 5284 5283 5282 5282 5281 5280 5280 5279 5278 5277 5276 5275 5274 5273 5273 5272 5272 5271 5270 5268 5267 5266 5265
5263 5264 5266 5267 5268 5269 5270 5271 5271 5271 5272 5272 5273 5273 5273 5273 5273 5273 5273 5273 5272 5271 5271 5270 5270 5269 5269 5268 5267 5267 5267 5266 5266 5265 5264 5264 5263 5262 5261 5260 5259 5258 5257
5253 5254 5255 5256 5257 5258 5259 5259 5259 5260 5261 5261 5262 5262 5262 5262 5262 5262 5262 5261 5261 5261 5260 5260 5260 5259 5259 5258 5258 5258 5258 5258 5257 5257 5256 5256 5255 5254 5254 5253 5252 5251 5250
5243 5244 5245 5245 5246 5246 5247 5248 5248 5249 5250 5250 5251 5251 5251 5252 5251 5251 5251 5251 5251 5250 5250 5250 5250 5250 5250 5250 5250 5250 5250 5250 5250 5250 5249 5248 5248 5247 5246 5246 5245 5244 5243
5234 5234 5234 5235 5235 5235 5236 5237 5238 5238 5238 5239 5240 5240 5241 5241 5241 5241 5241 5241 5241 5241 5242 5242 5242 5242 5242 5242 5243 5243 5243 5243 5243 5242 5242 5241 5240 5240 5239 5239 5238 5237 5236